Preview of NWS' New Version of Forecast
This preview is not operational and should not be used for support decisions.

Regional Weather Roundup (RWR)

Issued by National Weather Service (NWS)

                            
000
ASUS42 KTBW 221818
RWRFL 
FLORIDA REGIONAL WEATHER ROUNDUP
NATIONAL WEATHER SERVICE TAMPA BAY RUSKIN FL
200 PM EDT THU AUG 22 2019

NOTE: "FAIR" INDICATES FEW OR NO CLOUDS BELOW 12,000 FEET WITH NO
SIGNIFICANT WEATHER AND/OR OBSTRUCTIONS TO VISIBILITY.

FLZ001>010-012>015-112-114-115-221900-
PANHANDLE FLORIDA
  
CITY           SKY/WX    TMP DP  RH WIND       PRES   REMARKS
PENSACOLA      FAIR      88  79  74 SE10      30.03F HX 103           
PENSACOLA NAS  PTSUNNY   85  78  80 SE10      30.04S HX  96           
MILTON NAS     PTSUNNY   85  77  77 SE10      30.04  HX  95           
CRESTVIEW      FAIR      85  74  69 S5        30.07F                  
DUKE FIELD     PTSUNNY   82  77  84 SE5       30.05F                  
VALPARAISO     FAIR      79  75  89 CALM      30.05R                  
MARY ESTHER    PTSUNNY   80  74  82 SE6       30.04F                  
TRI COUNTY     FAIR      90  71  53 CALM      30.05F HX  96           
PANAMA CITY    FAIR      84  75  74 S7        30.03F                  
TYNDALL AFB    MOSUNNY   86  77  74 SW8       30.04F HX  96           
APALACHICOLA   FAIR      87  76  69 SE8       30.05F HX  97           

STATION/POSITION SKY/WX   TEMP    WIND        PRES    WAVE   SWELL
                          AIR SEA DIR/SP/G            HT/PER HT/PER
                          (F)     (DEG/KT/KT) (MB)    (FT/S) (FT/S)
30.1N   87.6W              83 85  110/  8/ 10 1017.3S   2/ 5   2/ 5
29.2N   88.2W              85 86  140/  2/  4 1017.0F   1/ 5   2/ 5
28.8N   86.0W                 85  120/  4/  6 1017.2F   2/ 4   2/ 4
PANAMA CITY BEAC           83 87  170/  9/ 10 1018.3F
TOWER C                    83     110/  6/  6 1018.1F
28.5N   84.5W              84      70/  4/  6 1018.3F   2/ 7   2/ 7

$$
FLZ011-016>038-118-127-128-134-139-239-221900-
NORTH FLORIDA
  
CITY           SKY/WX    TMP DP  RH WIND       PRES   REMARKS
MARIANNA       FAIR      89  74  60 VRB3      30.04F HX  98           
TALLAHASSEE    FAIR      93  76  57 VRB5      30.04F HX 105           
PERRY          FAIR      92  74  56 SE3       30.05F HX 102           
LIVE OAK       MOSUNNY   91  73  55 CALM      30.06F HX 100           
CROSS CITY     FAIR      91  73  56 NE6       30.06F HX 100           
LAKE CITY      FAIR      90  72  55 SW6       30.07F HX  96           
GAINESVILLE    FAIR      90  71  53 S8        30.09F HX  96           
WILLISTON      PTSUNNY   91  73  56 SE3       30.06F HX  99           
MAYPORT NAS    FAIR      89  75  63 E12       30.08S HX  99           
JACKSONVILLE   FAIR      92  69  47 SE7       30.06F HX  97           
JAX NAS        FAIR      91  70  49 VRB5      30.07F HX  96           
JAX CECIL      MOSUNNY   97  72  44 VRB5      30.06F HX 105           
FERNANDINA BEA FAIR      87  77  72 MISG      30.07F HX  99           
ST AUGUSTINE   FAIR      88  77  69 E12       30.09S HX 100           
PALM COAST     SUNNY     90  73  58 E14       30.07F HX  98           

STATION/POSITION SKY/WX   TEMP    WIND        PRES    WAVE   SWELL
                          AIR SEA DIR/SP/G            HT/PER HT/PER
                          (F)     (DEG/KT/KT) (MB)    (FT/S) (FT/S)
SHELL POINT      NOT AVBL
KEATON BEACH               84     200/  9/ 10 1018.1F
CEDAR KEY                  84     220/  6/  8 1018.1F
FERNANDINA                 93 84              1019.3
30.7N   81.3W                 85                N/A     2/11
MAYPORT                    85 84   90/  8/ 12 1019.1
31.4N   80.9W              82 84  200/  4/  6 1018.7F   1/11   2/11
ST AUGUSTINE               83 84   80/  8/  8 1018.6F

$$
FLZ040-043>046-052-053-057-058-063-144-221900-
INTERIOR CENTRAL FLORIDA
  
CITY           SKY/WX    TMP DP  RH WIND       PRES   REMARKS
OCALA          FAIR      91  73  55 VRB3      30.07F HX  99           
LEESBURG       FAIR      94  72  48 NW6       30.06F HX 102           
SANFORD        FAIR      90  72  55 E8        30.05F HX  97           
ORLANDO EXEC   PTSUNNY   91  72  53 NE8       30.05F HX  98           
ORLANDO INTL   FAIR      92  73  53 E9        30.05F HX 100           
WINTER HAVEN   FAIR      94  71  47 VRB3      30.06F HX 101           
LAKELAND       PTSUNNY   90  72  55 SE6       30.06F HX  96           
BARTOW         PTSUNNY   91  72  52 CALM      30.04F HX  98           
SEBRING        LGT RAIN  86  75  71 NE3       30.05S                  
OKEECHOBEE     PTSUNNY   88  73  62 NE10G16   30.03F HX  96           

$$
FLZ041-047-054-059-064-141-147-221900-
EAST CENTRAL FLORIDA
  
CITY           SKY/WX    TMP DP  RH WIND       PRES   REMARKS
ORMOND BEACH   SUNNY     86  75  70 E12       30.08S HX  95           
DAYTONA BEACH  FAIR      87  74  64 E10       30.07F HX  95           
DELAND         PTSUNNY   88  73  62 E12       30.05F HX  96           
NEW SMYRNA BEA MOSUNNY   88  75  66 E9        30.08F HX  97           
JFK SPACE CTR  SUNNY     89  53  29 E9        30.06F                  
TITUSVILLE     MOSUNNY   91  73  55 NE12      30.07F HX 100           
CAPE CANAVERAL FAIR      87  78  73 CALM      30.06F HX  99           
PATRICK AFB    FAIR      87  80  78 NE9       30.06F HX 102           
MELBOURNE      FAIR      89  76  65 NE13      30.05F HX 100           
VERO BEACH     PTSUNNY   87  75  67 NE13      30.05F HX  96           
FT PIERCE      FAIR      89  73  59 E12G17    30.05F HX  97           
STUART         PTSUNNY   86  73  66 VRB7      30.06F                  

STATION/POSITION SKY/WX   TEMP    WIND        PRES    WAVE   SWELL
                          AIR SEA DIR/SP/G            HT/PER HT/PER
                          (F)     (DEG/KT/KT) (MB)    (FT/S) (FT/S)
28.5N   80.2W              84 84   70/  6/  8 1018.0F   2/ 7   2/ 7
28.9N   78.5W              85 87   90/  6/  8 1019.0F
TRIDENT PIER               86 83   60/  8/ 11 1019.8
28.4N   80.5W                 83                N/A     2/ 4
27.5N   80.2W                 84                N/A     2/ 4

$$
FLZ050-056-061-142-242-148-248-149-249-151-251-155-255-
160-260-221900-
WEST CENTRAL FLORIDA
  
CITY           SKY/WX    TMP DP  RH WIND       PRES   REMARKS
CRYSTAL RIVER  FAIR      91  70  49 CALM      30.06S HX  97           
INVERNESS      FAIR      91  75  59 CALM      30.07F HX 102           
BROOKSVILLE    FAIR      91  73  55 VRB3      30.06F HX  99           
CLEARWATER AIR FAIR      88  72  58 CALM      30.05F                  
ST PETE CLEARW FAIR      91  71  51 VRB3      30.05F HX  97           
TAMPA INTL     FAIR      90  73  57 W7        30.05F HX  98           
PLANT CITY     FAIR      91  75  59 N6        30.07F HX 102           
MACDILL AFB    FAIR      90  73  56 W5        30.05F HX  98           
PETER O KNIGHT FAIR      91  73  55 NE6       30.05F HX 100           
ST PETERSBURG  FAIR      89  71  55 E3        30.03F HX  95           
SARASOTA       FAIR      92  73  53 N5        30.02F HX 100           
VENICE         FAIR      90  75  62 VRB5      30.04F HX 100           

STATION/POSITION SKY/WX   TEMP    WIND        PRES    WAVE   SWELL
                          AIR SEA DIR/SP/G            HT/PER HT/PER
                          (F)     (DEG/KT/KT) (MB)    (FT/S) (FT/S)
27.3N   84.2W                 87                N/A     2/ 6
CLEARWATER BEACH           85 88  250/  5/  7 1018.1F
MIDDLE TAMPA BAY           84      20/  7/  8 1018.2
VENICE                     87 86  280/  6/  8 1017.0F

$$
FLZ066-069-070-075>078-162-262-165-265-221900-
SOUTHWEST FLORIDA AND KEYS
  
CITY           SKY/WX    TMP DP  RH WIND       PRES   REMARKS
PUNTA GORDA    FAIR      92  72  51 N7        30.05F HX  99           
FT MYERS       FAIR      90  72  55 NE9       30.01F HX  97           
SOUTHWEST INTL FAIR      91  73  55 NE9       30.02F HX  99           
NAPLES         PTSUNNY   90  73  57 NE12      30.01F HX  98           
MARCO ISLAND   FAIR     N/A N/A N/A CALM        N/A                   
IMMOKALEE      FAIR      91  73  55 NE9G16    30.00F HX 100           
MARATHON       FAIR      88  73  61 N7        30.01F HX  95           
KEY WEST NAS   FAIR      91  75  59 N8        30.02F HX 101           
KEY WEST INTL  FAIR      90  75  61 NE10      30.02F HX 100           

STATION/POSITION SKY/WX   TEMP    WIND        PRES    WAVE   SWELL
                          AIR SEA DIR/SP/G            HT/PER HT/PER
                          (F)     (DEG/KT/KT) (MB)    (FT/S) (FT/S)
NAPLES                     87 88              1016.7
26.0N   85.6W              85 85   60/  4/  6 1017.3F   2/ 7   2/ 7
DRY TORTUGAS               85      20/  6/  7 1017.2F
SAND KEY                   84      10/  6/  8 1015.7F
SOMBRERO KEY               84      60/  4/  5 1016.7F
LONG KEY                   85                 1015.4

$$
FLZ067-068-071>074-168-172>174-221900-
SOUTHEAST FLORIDA 
  
CITY           SKY/WX    TMP DP  RH WIND       PRES   REMARKS
W PALM BEACH   FAIR      88  75  65 E14       30.04S HX  97           
BOCA RATON     MOSUNNY   88  73  62 E10       30.03F HX  96           
FT LAUDER-EXEC PTSUNNY   82  76  81 NE6       30.02F                  
FT LAUDERDALE  PTSUNNY   88  75  65 NE13G18   30.01F HX  97           
POMPANO BEACH  PTSUNNY   83  75  77 NE8       30.02F                  
PEMBROKE PINES FAIR      90  73  57 E9        30.02F HX  98           
OPA LOCKA      FAIR      89  74  60 E10       30.02F HX  98           
MIAMI          PTSUNNY   88  71  57 E8        30.01F                  
WEST KENDALL   FAIR      88  76  67 E8        30.00F HX  99           
HOMESTEAD      PTSUNNY   86  76  71 NE6       29.99F HX  95           

STATION/POSITION SKY/WX   TEMP    WIND        PRES    WAVE   SWELL
                          AIR SEA DIR/SP/G            HT/PER HT/PER
                          (F)     (DEG/KT/KT) (MB)    (FT/S) (FT/S)
VIRGINIA KEY               83 89   50/  7/ 10 1016.0F
LAKE WORTH                 81 86  110/  6/  8 1018.2
FOWEY ROCKS                82 86   50/ 11/ 12 1016.4F
SETTLEMENT POINT           76     100/ 11/ 14 1018.0R

$$